SPIRALE A

Last updated on Wed Jun 28 2023 00:03:42 GMT+0000 (Coordinated Universal Time)

1 33751U 09008C 23178.00599970 .00000373 00000+0 82845-3 0 9998 2 33751 2.0231 260.6066 5490448 235.1847 60.6670 4.59039212211935
UTC large
Height (km)
Speed (km/s)
/
Latitude / Longitude
Inclination (degrees)
Orbital Period (minutes)
Azimuth
Elevation
Range (km)
Doppler Factor

Next 0 passes for location: London (51.5072 / 0.1276)

Sorry there are no passes over London.
SPIRALE A